TimeCDT,TemperatureF,Dew PointF,Humidity,Sea Level PressureIn,VisibilityMPH,Wind Direction,Wind SpeedMPH,Gust SpeedMPH,PrecipitationIn,Events,Conditions,WindDirDegrees,DateUTC
12:52 AM,35.6,28.4,75,30.06,10.0,Calm,Calm,-,N/A,,Clear,0,2011-10-29 05:52:00
1:52 AM,33.1,27.0,78,30.07,10.0,SSW,3.5,-,N/A,,Clear,210,2011-10-29 06:52:00
2:52 AM,30.9,25.0,79,30.06,10.0,Calm,Calm,-,N/A,,Clear,0,2011-10-29 07:52:00
3:52 AM,30.9,25.0,79,30.05,10.0,Calm,Calm,-,N/A,,Clear,0,2011-10-29 08:52:00
4:52 AM,30.2,24.8,80,30.04,10.0,Calm,Calm,-,N/A,,Clear,0,2011-10-29 09:52:00
5:52 AM,30.0,23.0,75,30.07,10.0,West,5.8,-,N/A,,Clear,260,2011-10-29 10:52:00
6:52 AM,30.0,24.1,79,30.08,10.0,West,6.9,-,N/A,,Clear,270,2011-10-29 11:52:00
7:52 AM,30.0,24.1,79,30.10,10.0,West,6.9,-,N/A,,Clear,270,2011-10-29 12:52:00
8:52 AM,36.0,28.0,73,30.13,10.0,West,5.8,-,N/A,,Clear,270,2011-10-29 13:52:00
9:52 AM,43.0,28.0,56,30.14,10.0,West,4.6,-,N/A,,Clear,280,2011-10-29 14:52:00
10:52 AM,50.0,28.0,43,30.13,10.0,West,5.8,-,N/A,,Clear,270,2011-10-29 15:52:00
11:52 AM,53.1,28.0,38,30.14,10.0,West,8.1,-,N/A,,Clear,280,2011-10-29 16:52:00
12:52 PM,54.0,25.0,33,30.13,10.0,WNW,5.8,17.3,N/A,,Clear,290,2011-10-29 17:52:00
1:52 PM,55.0,24.1,30,30.10,10.0,West,8.1,-,N/A,,Clear,280,2011-10-29 18:52:00
2:52 PM,55.0,23.0,29,30.08,10.0,SW,4.6,-,N/A,,Clear,230,2011-10-29 19:52:00
3:52 PM,55.9,23.0,28,30.07,10.0,West,4.6,-,N/A,,Clear,260,2011-10-29 20:52:00
4:52 PM,54.0,23.0,30,30.07,10.0,West,3.5,-,N/A,,Clear,260,2011-10-29 21:52:00
5:52 PM,48.0,26.1,42,30.07,10.0,SE,3.5,-,N/A,,Clear,140,2011-10-29 22:52:00
6:52 PM,43.0,28.0,56,30.08,10.0,Calm,Calm,-,N/A,,Clear,0,2011-10-29 23:52:00
7:52 PM,39.9,27.0,60,30.08,10.0,ESE,4.6,-,N/A,,Clear,110,2011-10-30 00:52:00
8:52 PM,41.0,25.0,53,30.08,10.0,East,4.6,-,N/A,,Clear,80,2011-10-30 01:52:00
9:52 PM,41.0,26.1,55,30.08,10.0,SE,6.9,-,N/A,,Clear,130,2011-10-30 02:52:00
10:52 PM,41.0,25.0,53,30.06,10.0,SE,9.2,-,N/A,,Clear,140,2011-10-30 03:52:00
11:52 PM,41.0,24.1,51,30.06,10.0,ESE,9.2,-,N/A,,Clear,120,2011-10-30 04:52:00